Terminal Aerodrome Forecast
Issued by NWS Charleston, WV

Current Version | Previous Version | Graphics & Text | Print | Product List | Glossary On
Versions: 1 2 3 4 5 6 7 8 9 10 11 12 13 14 15 16 17 18 19 20 21 22 23
000
FTUS41 KRLX 180800 CCA
TAFCRW
TAF COR
KCRW 180841Z 1809/1906 00000KT 1/2SM FG BKN001
     FM181400 00000KT 5SM BR BKN020
     FM181600 00000KT P6SM BKN040
     FM181700 VRB03KT P6SM SCT040
     FM190100 00000KT P6SM BKN250=

USA.gov is the U.S. government's official web portal to all federal, state and local government web resources and services.